Content
SEND FEEDBACK

Daily
Averages
Monthly
Summary
China

KASHI, CHINA


Home > Asia > China
Elevation: 4236 feet     Latitude: 39 28N     Longitude: 075 58E

WEATHER
 
SELECT A DAY
Number of Records: 112,786;   Date Range: 7/6/03 - 9/29/14
 
SHARE

PRINT THIS DATA

[ ← Previous Day ]
WEATHER ALMANAC - APRIL 10, 2014
[ Next Day → ]
[ °C ]   °F
Weather ElementAverageHighLow
Temperature58.7 °F69.8 °F (6:00 pm)42 °F (8:00 am)
Dewpoint16.6 °F25 °F (2:00 pm)10.4 °F (1:00 am)
Humidity17.5 %26 % (5:00 am)9 % (8:00 pm)
Barometer30.03 in30.12 in (11:00 am)29.91 in (8:00 pm)
Wind Speed7.8 mph15.7 mph (3:00 pm)
Weather ElementAverage
Visibility13 mi
Wind DirectionSSE (167.4 °)

Weather ElementTotal
Precipitation---
Heating Degree Days9.1 (Base 65)
Growing Degree Days5.9 (Base 50)
Averaged from 31 records on April 10, 2014
WEATHER CONDITIONS BREAKOUT
WIND DIRECTION BREAKOUT
WEATHER BY HOUR - APRIL 10, 2014
[ °C ]   °F
Local TimeTemperatureDewpointHumidityBarometerVisibilityWind DirectionWind SpeedGust SpeedPrecipitationEventsConditions
1:00 AM55.4 °F10.4 °F17 %30.06 inNNE (30°)8.9 mphClear
2:00 AM51.0 °F20.0 °F17 %29.99 inNNE (20°)4.5 mph
2:00 AM53.6 °F10.4 °F18 %30.06 inNorth (350°)8.9 mphClear
3:00 AM51.8 °F14.0 °F22 %30.09 inNNW (340°)8.9 mphClear
4:00 AM51.8 °F12.2 °F21 %30.09 inNorth (350°)8.9 mphClear
5:00 AM46.0 °F19.0 °F22 %29.99 inWest (270°)4.5 mph
5:00 AM51.8 °F17.6 °F26 %30.09 inVariable11.2 mphClear
6:00 AM51.8 °F15.8 °F24 %30.06 inNorth (350°)11.2 mphClear
7:00 AM50.0 °F15.8 °F26 %30.06 inNNW (330°)8.9 mphClear
8:00 AM42.0 °F18.0 °F24 %30.02 in19.0 miWNW (290°)6.7 mph
8:00 AM50.0 °F14.0 °F24 %30.09 inNNW (330°)8.9 mphClear
9:00 AM51.8 °F12.2 °F21 %30.09 inNNW (330°)11.2 mphClear
10:00 AM55.4 °F12.2 °F18 %30.09 inVariable6.7 mphClear
11:00 AM56.0 °F16.0 °F11 %30.01 in19.0 miWSW (250°)4.5 mphScattered Clouds
11:00 AM57.2 °F19.4 °F23 %30.12 inENE (60°)13.4 mphClear
12:00 PM59.0 °F23.0 °F25 %30.12 inENE (70°)11.2 mphClear
1:00 PM62.6 °F21.2 °F20 %30.12 inENE (60°)8.9 mphClear
2:00 PM65.0 °F25.0 °F12 %29.99 in19.0 miESE (110°)11.2 mphMostly Cloudy
2:00 PM64.4 °F19.4 °F18 %30.09 inENE (70°)8.9 mphClear
3:00 PM66.2 °F15.8 °F14 %30.06 in6.2 miESE (120°)15.7 mphPartly Cloudy
4:00 PM68.0 °F15.8 °F13 %30.04 inSE (130°)6.7 mphClear
5:00 PM66.0 °F24.0 °F11 %29.94 in16.0 miESE (110°)6.7 mphMostly Cloudy
5:00 PM66.2 °F15.8 °F14 %30.01 in6.2 miVariable4.5 mphPartly Cloudy
6:00 PM69.8 °F15.8 °F13 %29.98 in6.2 miSSE (150°)6.7 mphPartly Cloudy
7:00 PM69.8 °F14.0 °F12 %29.98 inSE (140°)6.7 mphClear
8:00 PM68.0 °F23.0 °F9 %29.91 in12.0 miNE (40°)2.2 mphMostly Cloudy
8:00 PM69.8 °F12.2 °F11 %29.98 inEast (100°)4.5 mphClear
9:00 PM68.0 °F14.0 °F12 %29.98 inEast (80°)4.5 mphClear
10:00 PM64.4 °F12.2 °F13 %29.98 inEast (80°)4.5 mphClear
11:00 PM57.0 °F24.0 °F16 %29.91 inWest (270°)4.5 mph
11:00 PM60.8 °F12.2 °F15 %30.01 inNorth (360°)6.7 mphClear
Hourly data recorded from ZWSH, located miles away from Kashi, China







STORIES FROM OUR PARTNERS